This is the latest recevied weather packets stored in our database for station/object DO7CRZ-12. If no packets are shown the sender has not sent any weather packets the latest 10 day(s).
| Time | Temp. | Humidity | Pressure | Rain* | Wind** | Luminosity | Snow |
|---|---|---|---|---|---|---|---|
| 1777785447 | 16.67° C | 36% | 1015.7 hPa | 0 mm | - | 23 W/m² | - |
| 1777784844 | 16.67° C | 36% | 1015.7 hPa | 0 mm | - | 21 W/m² | - |
| 1777784241 | 16.11° C | 36% | 1015.8 hPa | 0 mm | - | 20 W/m² | - |
| 1777783035 | 16.11° C | 36% | 1015.8 hPa | 0 mm | - | 17 W/m² | - |
| 1777782448 | 16.11° C | 36% | 1015.7 hPa | 0 mm | - | 13 W/m² | - |
| 1777781845 | 16.11° C | 35% | 1015.8 hPa | 0 mm | - | 10 W/m² | - |
| 1777780639 | 16.11° C | 34% | 1015.8 hPa | 0 mm | - | 5 W/m² | - |
| 1777780036 | 16.11° C | 34% | 1015.8 hPa | 0 mm | - | 3 W/m² | - |
| 1777779449 | 16.11° C | 34% | 1015.8 hPa | 0 mm | - | 1 W/m² | - |
| 1777778846 | 16.11° C | 34% | 1015.9 hPa | 0 mm | - | 0 W/m² | - |
| 1777778243 | 16.11° C | 34% | 1015.8 hPa | 0 mm | - | 0 W/m² | - |
| 1777777640 | 16.11° C | 34% | 1015.9 hPa | 0 mm | - | 0 W/m² | - |
| 1777777038 | 16.11° C | 34% | 1015.7 hPa | 0 mm | - | 0 W/m² | - |
| 1777776450 | 16.67° C | 33% | 1015.9 hPa | 0 mm | - | 0 W/m² | - |
| 1777775847 | 16.67° C | 33% | 1016 hPa | 0 mm | - | 0 W/m² | - |
| 1777775244 | 16.67° C | 33% | 1016 hPa | 0 mm | - | 0 W/m² | - |
| 1777774641 | 16.67° C | 33% | 1015.9 hPa | 0 mm | - | 0 W/m² | - |
| 1777774038 | 16.67° C | 33% | 1016 hPa | 0 mm | - | 0 W/m² | - |
| 1777773435 | 16.11° C | 33% | 1016.1 hPa | 0 mm | - | 0 W/m² | - |
| 1777772848 | 16.11° C | 33% | 1016.1 hPa | 0 mm | - | 0 W/m² | - |
| 1777772245 | 16.11° C | 34% | 1016.1 hPa | 0 mm | - | 0 W/m² | - |
| 1777770436 | 16.11° C | 34% | 1016.2 hPa | 0 mm | - | 0 W/m² | - |
| 1777769849 | 16.11° C | 35% | 1016.1 hPa | 0 mm | - | 0 W/m² | - |
| 1777769246 | 16.11° C | 34% | 1016.2 hPa | 0 mm | - | 0 W/m² | - |
| 1777768643 | 16.11° C | 33% | 1016.2 hPa | 0 mm | - | 0 W/m² | - |
* Rain latest hour (hover to see other rain measurements)
** Current wind speed in m/s (hover to see current wind gust speed)